Regional Weather Roundup
Issued by NWS

Home | Current Version | Previous Version | Graphics & Text | Print | Product List | Glossary On
Versions: 1 2 3 4 5 6 7 8 9 10 11 12 13 14 15 16 17 18 19 20 21 22 23 24 25 26 27 28 29 30 31 32 33 34 35 36 37 38 39 40 41 42 43 44 45 46 47 48 49 50
000
ASUS43 KFSD 242002
RWRSD

WEATHER ROUNDUP FOR SOUTH DAKOTA
NATIONAL WEATHER SERVICE SIOUX FALLS SD
200 PM CST MON NOV 24 2014

NOTE: "FAIR" INDICATES FEW OR NO CLOUDS BELOW 12,000 FEET WITH NO
SIGNIFICANT WEATHER AND/OR OBSTRUCTIONS TO VISIBILITY.


SDZ001>005-009-010-012>017-242100-
NORTHWEST AND NORTH CENTRAL SOUTH DAKOTA

CITY           SKY/WX    TMP DP  RH WIND       PRES   REMARKS
BUFFALO          N/A     34  21  59 NW23      29.88R WCI  22
FAITH            N/A     31  15  52 N20       29.92R WCI  19
MOBRIDGE       SUNNY     27   6  41 NW17      29.90R WCI  14
$$

SDZ012>016-024>037-041>051-057-063-072>074-242100-
SOUTHWEST AND SOUTH CENTRAL SOUTH DAKOTA

CITY           SKY/WX    TMP DP  RH WIND       PRES   REMARKS
RAPID CTY ARPT SNOW      29  26  89 N7        29.94R VSB 1/2 WCI  22
PIERRE         SUNNY     29   7  39 NW18      29.92R WCI  16
CUSTER         CLOUDY    30  18  60 N9G20     29.86R WCI  22
PHILIP         SUNNY    N/A N/A N/A NW13      29.95R
PINE RIDGE     CLOUDY    33  27  78 N6        29.93R WCI  28
WINNER         FAIR      32   6  33 NW22G31   29.90R WCI  19
$$

SDZ004>011-016>023-039-040-242100-
NORTHEAST SOUTH DAKOTA

CITY           SKY/WX    TMP DP  RH WIND       PRES   REMARKS
ABERDEEN       SUNNY     27  14  58 NW23G32   29.85R WCI  12
WATERTOWN      LGT SNOW  18  12  77 NW23G33   29.74R WCI   0
SISSETON         N/A     20  12  71 N31G38    29.76R WCI   1
$$

SDZ017-020-022-023-036>040-048>070-242100-
SOUTHEAST SOUTH DAKOTA

CITY           SKY/WX    TMP DP  RH WIND       PRES   REMARKS
SIOUX FALLS    PTSUNNY   24  13  62 NW28G37   29.75R WCI   7
HURON          SUNNY     26  13  57 NW21G30   29.84R WCI  12
CHAMBERLAIN    SUNNY     29   9  43 NW25G31   29.89R WCI  14
MITCHELL       SUNNY     28  14  55 NW30G37   29.85R WCI  12
YANKTON        SUNNY    N/A N/A N/A NW32G41   29.79R
$$

ABBREVIATIONS USED IN REMARKS
   TC - TEMPERATURE IN CELSIUS
  WCI - WIND CHILL INDEX
   HX - HEAT INDEX
  VSB - VISIBILITY



USA.gov is the U.S. government's official web portal to all federal, state and local government web resources and services.